Regional Weather Roundup
Issued by NWS

Home | Current Version | Previous Version | Graphics & Text | Print | Product List | Glossary On
Versions: 1 2 3 4 5 6 7 8 9 10 11 12 13 14 15 16 17 18 19 20 21 22 23 24 25 26 27 28 29 30 31 32 33 34 35 36 37 38 39 40 41 42 43 44 45 46 47 48 49 50
042
ASUS43 KOAX 042310
RWRNE

WEATHER ROUNDUP FOR NEBRASKA
NATIONAL WEATHER SERVICE OMAHA NE
600 PM CDT WED MAY 04 2016

NOTES: SATELLITE DATA IS BEING USED TO AUGMENT CLOUD COVER ABOVE
       12000 FEET.
       "FAIR" INDICATES FEW OR NO CLOUDS BELOW 12,000 FEET WITH NO
       SIGNIFICANT WEATHER AND/OR OBSTRUCTIONS TO VISIBILITY.

  * THESE STATIONS DO NOT REPORT WEATHER SUCH AS RAIN...SNOW OR FOG.

NEZ001>004-019>022-054>056-050000-
NEBRASKA PANHANDLE

CITY           SKY/WX    TMP DP  RH WIND       PRES   REMARKS
SCOTTSBLUFF    SUNNY     76  39  26 SE6       30.09F
ALLIANCE       SUNNY     73  38  27 SE8       30.10F
CHADRON        SUNNY     77  40  26 SE8       30.05F
KIMBALL        SUNNY     73  33  23 CALM      30.14F
SIDNEY         SUNNY     73  40  30 VRB7      30.13F
$$

NEZ057>060-069>072-079>082-050000-
SOUTHWEST NEBRASKA

CITY           SKY/WX    TMP DP  RH WIND       PRES   REMARKS
NORTH PLATTE   SUNNY     75  36  24 N14       30.07F
IMPERIAL       SUNNY     77  35  21 VRB5      30.09F
LEXINGTON      SUNNY     72  39  30 N8        30.07F
MCCOOK         SUNNY     77  41  27 NE9       30.07S
OGALLALA       SUNNY     75  34  21 CALM      30.09F
$$

NEZ005>010-023>029-035>040-094-050000-
NORTH CENTRAL NEBRASKA

CITY           SKY/WX    TMP DP  RH WIND       PRES   REMARKS
VALENTINE      SUNNY     74  35  24 E6        30.08S
AINSWORTH      SUNNY     70  33  25 N3        30.08F
BROKEN BOW     SUNNY     73  46  38 N7        30.07F
O`NEILL        SUNNY     69  33  26 N9        30.07F
ORD            SUNNY     70  36  28 N13       30.05F
THEDFORD       SUNNY     74  38  26 N7        30.10S
$$

NEZ041-046>049-061>064-073>077-083>087-050000-
SOUTH CENTRAL NEBRASKA

CITY           SKY/WX    TMP DP  RH WIND       PRES   REMARKS
GRAND ISLAND   SUNNY     70  30  22 N12       30.06F
AURORA         SUNNY     70  29  22 N14       30.05S
HASTINGS       SUNNY     70  31  23 N15G21    30.06S
HEBRON         SUNNY     71  32  23 N7        30.04S
HOLDREGE       SUNNY     71  33  24 N9        30.07S
KEARNEY *      SUNNY     70  34  26 N10       30.08S
YORK           SUNNY     68  32  26 N15G21    30.05S
$$

NEZ011>018-030>034-042>045-050000-
NORTHEAST NEBRASKA

CITY           SKY/WX    TMP DP  RH WIND       PRES   REMARKS
NORFOLK        SUNNY     68  32  26 NW15      30.03F
ALBION         SUNNY     68  32  27 N10       30.05F
BLAIR          SUNNY     68  40  35 N14       30.01S
COLUMBUS *     SUNNY     70  30  23 NW9G17    30.04F
FREMONT        SUNNY     69  36  30 NW12G17   30.02S
TEKAMAH        SUNNY     68  40  35 N14       30.01S
WAYNE          SUNNY     67  38  34 N12G17    30.03F
$$

NEZ050>053-065>068-078-088>093-050000-
SOUTHEAST NEBRASKA

CITY           SKY/WX    TMP DP  RH WIND       PRES   REMARKS
LINCOLN        SUNNY     72  32  23 N13       30.03F
OMAHA EPPLEY   MOSUNNY   69  38  32 N13       30.00S
BEATRICE       SUNNY     69  37  30 N16       30.02F
FALLS CITY     SUNNY     69  36  29 N15G22    29.99S
NEBRASKA CITY  SUNNY     68  33  27 NE15      30.00F
PLATTSMOUTH    SUNNY     69  36  29 N8G17     30.01S
$$

NEZ044-045-051>053-067-050000-
OMAHA AREA

CITY           SKY/WX    TMP DP  RH WIND       PRES   REMARKS
OMAHA EPPLEY   MOSUNNY   69  38  32 N13       30.00S
BLAIR          SUNNY     68  40  35 N14       30.01S
FREMONT        SUNNY     69  36  30 NW12G17   30.02S
MILLARD        SUNNY     69  37  30 N6        30.01S
OFFUTT AFB     SUNNY     68  38  33 N7        30.00S
PLATTSMOUTH    SUNNY     69  36  29 N8G17     30.01S
WAHOO          FAIR      70  31  23 N10G21    30.02S
$$




USA.gov is the U.S. government's official web portal to all federal, state and local government web resources and services.